Simultaneous Nadir Overpasses (SNOs) Predictions

Prediction of SNOs between TERRA and METOP-C Satellite Orbit:

Table of predicted SNOs for the next 14.0 days since TLE Epoch: 6/24/2023
Index Date (TERRA) Time (TERRA) Lat,Lon (TERRA) SZA (TERRA ) Date (METOP-C) Time (METOP-C) Lat,Lon (METOP-C) SZA (METOP-C ) Distance(km) Time Diff (sec)
1 06/24/2023 18:39:29 -80.78, 112.10 121.22 06/24/2023 18:39:11 -80.77, 111.95 121.25 2.91 18
2 06/24/2023 19:28:49 80.82, -79.76 58.86 06/24/2023 19:29:48 80.83, -79.75 58.89 0.55 59
3 06/27/2023 10:00:53 80.77, 61.61 58.83 06/27/2023 10:00:07 80.77, 61.73 58.83 2.16 46
4 06/27/2023 10:50:14 -80.83,-130.05 121.06 06/27/2023 10:50:46 -80.83,-129.90 121.03 2.61 32
5 06/30/2023 01:22:20 -80.74, 10.84 121.12 06/30/2023 01:21:08 -80.74, 10.87 121.15 0.49 72
6 06/30/2023 02:11:40 80.77, 178.88 58.95 06/30/2023 02:11:46 80.77, 178.71 58.93 3.11 6
7 07/02/2023 17:33:06 -80.75, 128.30 120.93 07/02/2023 17:32:46 -80.75, 128.17 120.95 2.21 20
8 07/02/2023 18:22:25 80.81, -63.36 59.19 07/02/2023 18:23:22 80.82, -63.32 59.22 1.01 57
9 07/05/2023 08:54:29 80.74, 77.79 59.26 07/05/2023 08:53:43 80.73, 77.64 59.23 2.86 46
10 07/05/2023 09:43:51 -80.78,-114.12 120.67 07/05/2023 09:44:23 -80.78,-114.24 120.67 2.26 32
11 07/08/2023 00:15:53 -80.72, 27.21 120.52 07/08/2023 00:14:41 -80.73, 27.38 120.52 3.14 72



Historial Predications of SNOs between TERRA and METOP-C
